Flag for Canada Weather past 2 weeks in Waterloo, Ontario, Canada

Now
48 °F

Clear.


Feels Like: 48 °F
Forecast: 41 / 64 °F
Wind: 2 mph from West

Location: Waterloo Well

Current Time: Sep 16, 2014 at 10:27:06 PM

Latest Report: Sep 16, 2014 at 9:00 PM


Visibility: 9 mi

Pressure: 30.08 "Hg

Humidity: 87%

Dew point: 45 °F

Location of WaterlooLocation

Historic Weather in Waterloo — Graph

°F

Waterloo temperature yesterday

Maximum temperature yesterday: 61 °F (at 11:00 AM)
Minimum temperature yesterday: 41 °F (at 7:00 AM)
Average temperature yesterday: 52 °F

Past Weeks' High & Low Weather Summary

 TemperatureHumidityPressure
High84 °F (Sep 5, 3:00 PM)100% (Sep 3, 12:03 AM)30.37 "Hg (Sep 3, 12:03 AM)
Low37 °F (Sep 14, 4:57 AM)43% (Sep 7, 5:00 PM)29.54 "Hg (Sep 11, 3:00 AM)
Average60 °F84%30.06 "Hg
* Reported Sep 1 9:00 PM — Sep 16 9:00 PM, Waterloo, Weather by CustomWeather, © 2014

Note: Actual official high and low records may vary slightly from our data, if they occured in-between our weather recording intervals... More about our weather records

Advertising

Waterloo weather history for previous 24 hours

 ConditionsComfort  
Time TempWeatherWind HumidityBarometerVisibility
9:00 PM
Sep 16
48 °FClear.2 mph87%30.08 "Hg9 mi
8:00 PM50 °FSunny.6 mph76%30.08 "Hg9 mi
7:00 PM57 °FSunny.9 mph59%30.07 "Hg9 mi
6:00 PM59 °FPassing clouds.12 mph55%30.06 "Hg9 mi
5:00 PM61 °FPassing clouds.13 mph52%30.06 "Hg9 mi
4:00 PM61 °FPassing clouds.9 mph55%30.07 "Hg9 mi
3:00 PM61 °FPartly sunny.9 mph55%30.08 "Hg9 mi
2:00 PM63 °FBroken clouds.8 mph52%30.08 "Hg9 mi
1:00 PM63 °FScattered clouds.8 mph52%30.09 "Hg9 mi
12:00 PM59 °FPassing clouds.10 mph59%30.11 "Hg9 mi
11:00 AM57 °FPassing clouds.8 mph72%30.12 "Hg9 mi
10:00 AM55 °FSunny.8 mph77%30.13 "Hg9 mi
9:00 AM52 °FSunny.7 mph88%30.12 "Hg9 mi
8:00 AM46 °FClear.7 mph100%30.11 "Hg9 mi
7:00 AM45 °FClear.6 mph93%30.10 "Hg9 mi
6:00 AM46 °FClear.6 mph93%30.08 "Hg9 mi
5:00 AM48 °FOvercast.5 mph100%30.07 "Hg9 mi
4:00 AM46 °FFog.5 mph100%30.07 "Hg6 mi
3:04 AM46 °FFog.3 mph100%30.05 "Hg1 mi
3:00 AM46 °FFog.3 mph100%30.06 "Hg3 mi
2:00 AM50 °FFog.5 mph94%30.05 "Hg6 mi
1:00 AM52 °FFog.3 mph94%30.06 "Hg4 mi
12:00 AM52 °FFog.6 mph94%30.06 "Hg4 mi
11:48 PM
Sep 15
52 °FFog.5 mph94%30.06 "Hg4 mi
11:00 PM54 °FLight rain. Mostly cloudy.5 mph88%30.07 "Hg7 mi
10:00 PM52 °FLight rain. Mostly cloudy.2 mph94%30.07 "Hg9 mi
Weather by CustomWeather, © 2014

See weather overviewHow to use our weather pages